Weather History for Rivne, Ukraine

Change the Weather History Date:

Tuesday, February 12, 2013

  Actual Average Record
Temperature  
Mean Temperature 19 °F -  
Max Temperature 30 °F - - ()
Min Temperature 10 °F - - ()
Degree Days  
Heating Degree Days 46    
Moisture  
Dew Point 21 °F    
Average Humidity 90    
Maximum Humidity 100    
Minimum Humidity 78    
Precipitation  
Precipitation 0.00 in 0.04 in - ()
Sea Level Pressure  
Sea Level Pressure 30.06 in    
Wind  
Wind Speed 3 mph ()    
Max Wind Speed 13 mph    
Max Gust Speed -    
Visibility 4.3 miles    
Events Fog    
T = Trace of Precipitation, MM = Missing Value Source: Averaged Metar Reports

Daily Weather History Graph

Daily Weather History Graph

Search for Another Location

Airport:

Trip Planner

Search our weather history database for the weather conditions in past years. The results will help you decide how hot, cold, wet, or windy it might be!

Date:

Astronomy

Feb. 12, 2013 Rise Set
Actual Time 7:32 AM EET 5:27 PM EET
Civil Twilight 6:58 AM EET 6:01 PM EET
Nautical Twilight 6:20 AM EET 6:40 PM EET
Astronomical Twilight 5:42 AM EET 7:17 PM EET
Moon 7:59 AM EET (2/12) 8:31 PM EET (2/12)
Length of Visible Light 11h 02m
Length of Day
9h 54m
Waxing Crescent, 6% of the Moon is Illuminated
Feb 12
Waxing Crescent
Feb 17
First Quarter
Feb 25
Full
Mar 4
Last Quarter
Mar 11
New

Hourly Weather History & Observations

Time (EET) Temp. Windchill Dew Point Humidity Pressure Visibility Wind Dir Wind Speed Gust Speed Precip Events Conditions
2:00 AM 28 °F - 27 °F 95% 30.04 in 2 mi WNW 4.5 mph - -   Mist
5:00 AM 27 °F - 24 °F 86% 30.06 in 6 mi WNW 6.7 mph - -   Overcast
6:00 AM 26.6 °F 21.3 °F 23.0 °F 86% 30.01 in 6.2 mi North 4.5 mph - N/A   Overcast
6:30 AM 26.6 °F - 23.0 °F 86% 30.01 in 6.2 mi NW 2.2 mph - N/A   Overcast
7:00 AM 24.8 °F - 21.2 °F 86% 30.01 in 6.2 mi Calm Calm - N/A   Overcast
7:30 AM 21.2 °F - 17.6 °F 86% 30.01 in 6.2 mi Calm Calm - N/A   Overcast
8:00 AM 21 °F - 20 °F 93% 30.08 in 6 mi East 4.5 mph - -   Mostly Cloudy
8:00 AM 21.2 °F - 19.4 °F 93% 30.01 in 6.2 mi East 2.2 mph - N/A   Mostly Cloudy
8:30 AM 15.8 °F - 12.2 °F 86% 30.04 in 1.4 mi Calm Calm - N/A   Mostly Cloudy
8:37 AM 14.0 °F - 12.2 °F 93% 30.04 in 0.6 mi Calm Calm - N/A   Mostly Cloudy
8:48 AM 12.2 °F - 10.4 °F 92% 30.04 in 0.4 mi Calm Calm - N/A Fog Light Freezing Fog
9:00 AM 10.4 °F - 10.4 °F 100% 30.04 in 0.4 mi Calm Calm - N/A Fog Light Freezing Fog
9:30 AM 12.2 °F - 10.4 °F 92% 30.04 in 0.4 mi Calm Calm - N/A Fog Light Freezing Fog
9:51 AM 14.0 °F - 14.0 °F 100% 30.04 in 0.7 mi Calm Calm - N/A   Mostly Cloudy
10:00 AM 14.0 °F - 14.0 °F 100% 30.04 in 0.7 mi Calm Calm - N/A   Mostly Cloudy
10:15 AM 15.8 °F - 14.0 °F 93% 30.04 in 1.4 mi Calm Calm - N/A   Mostly Cloudy
10:30 AM 17.6 °F - 15.8 °F 93% 30.04 in 2.5 mi Calm Calm - N/A   Mostly Cloudy
11:00 AM 26 °F - 24 °F 89% 30.11 in 6 mi East 2.2 mph - -   Partly Cloudy
11:00 AM 26.6 °F 21.3 °F 24.8 °F 93% 30.04 in 6.2 mi East 4.5 mph - N/A   Mostly Cloudy
11:30 AM 28.4 °F 23.4 °F 23.0 °F 80% 30.06 in 6.2 mi SE 4.5 mph - N/A   Mostly Cloudy
12:00 PM 28.4 °F 23.4 °F 23.0 °F 80% 30.06 in 6.2 mi ESE 4.5 mph - N/A   Overcast
12:30 PM 28.4 °F - 24.8 °F 86% 30.06 in 6.2 mi Calm Calm - N/A   Overcast
1:00 PM 28.4 °F 19.9 °F 24.8 °F 86% 30.06 in 6.2 mi SE 8.9 mph - N/A   Overcast
1:30 PM 28.4 °F 19.9 °F 24.8 °F 86% 30.06 in 6.2 mi ESE 8.9 mph - N/A   Overcast
2:00 PM 27 °F - 24 °F 85% 30.13 in 6 mi ESE 11.2 mph - -   Partly Cloudy
2:00 PM 26.6 °F 16.4 °F 24.8 °F 93% 30.06 in 6.2 mi ESE 11.2 mph - N/A   Overcast
2:30 PM 26.6 °F 17.7 °F 24.8 °F 93% 30.06 in 6.2 mi ESE 8.9 mph - N/A   Overcast
3:00 PM 26.6 °F 17.7 °F 24.8 °F 93% 30.09 in 6.2 mi ESE 8.9 mph - N/A   Overcast
3:30 PM 26.6 °F 19.2 °F 24.8 °F 93% 30.09 in 6.2 mi ESE 6.7 mph - N/A   Overcast
4:00 PM 26.6 °F 19.2 °F 24.8 °F 93% 30.09 in 3.1 mi SE 6.7 mph - N/A   Overcast
4:30 PM 26.6 °F 19.2 °F 24.8 °F 93% 30.09 in 3.1 mi SE 6.7 mph - N/A   Overcast
5:00 PM 27 °F - 26 °F 92% 30.16 in 2 mi SE 6.7 mph - -   Mist
5:00 PM 26.6 °F 19.2 °F 24.8 °F 93% 30.09 in 3.1 mi SE 6.7 mph - N/A   Overcast
8:00 PM 28 °F - 26 °F 86% 30.17 in 6 mi ESE 8.9 mph - -   Overcast
11:00 PM 30 °F - 26 °F 78% 30.19 in 6 mi SE 13.4 mph - -   Overcast